ProjectID,Date,Electric Generation,Electric Utility Import,Facility Electric Load
,YYYY-MM-DD,kW,kW,kW
222,2014-12-01,0.0,,0.0
222,2014-12-02,0.0,,0.0
222,2014-12-03,0.0,,0.0
222,2014-12-04,0.0,,0.0
222,2014-12-05,0.0,,0.0
222,2014-12-06,0.0,,0.0
222,2014-12-07,0.0,,0.0
222,2014-12-08,0.0,,0.0
222,2014-12-09,0.0,,0.0
222,2014-12-10,0.0,,0.0
222,2014-12-11,0.0,,0.0
222,2014-12-12,0.0,,0.0
222,2014-12-13,0.0,,0.0
222,2014-12-14,0.0,,0.0
222,2014-12-15,0.0,,0.0
222,2014-12-16,3.2825,,3.2825
222,2014-12-17,7.6379166666666665,,7.6379166666666665
222,2014-12-18,9.508333333333333,,9.508333333333333
222,2014-12-19,8.224166666666667,,8.224166666666667
222,2014-12-20,1.6233333333333333,,1.6233333333333333
222,2014-12-21,2.0691666666666664,,2.0691666666666664
222,2014-12-22,1.5095833333333333,,1.5095833333333333
222,2014-12-23,1.4225,,1.4225
222,2014-12-24,0.6145833333333334,,0.6145833333333334
222,2014-12-25,6.68875,,6.68875
222,2014-12-26,11.669583333333334,,11.669583333333334
222,2014-12-27,10.607916666666666,,10.607916666666666
222,2014-12-28,3.43375,,3.43375
222,2014-12-29,8.82625,,8.82625
222,2014-12-30,5.952083333333333,,5.952083333333333
222,2014-12-31,10.409583333333334,,10.409583333333334
222,2015-01-01,11.95125,,11.95125
222,2015-01-02,10.55875,,10.55875
222,2015-01-03,2.095,,2.095
222,2015-01-04,1.6291666666666667,,1.6291666666666667
222,2015-01-05,11.549583333333333,,11.549583333333333
222,2015-01-06,0.4166666666666667,,0.4166666666666667
222,2015-01-07,5.7245833333333325,,5.7245833333333325
222,2015-01-08,12.77875,,12.77875
222,2015-01-09,6.025833333333334,,6.025833333333334
222,2015-01-10,13.552916666666667,,13.552916666666667
222,2015-01-11,7.899583333333333,,7.899583333333333
222,2015-01-12,0.7808333333333333,,0.7808333333333333
222,2015-01-13,13.797083333333333,,13.797083333333333
222,2015-01-14,6.847916666666666,,6.847916666666666
222,2015-01-15,10.204583333333334,,10.204583333333334
222,2015-01-16,10.615,,10.615
222,2015-01-17,13.394166666666665,,13.394166666666665
222,2015-01-18,0.27625,,0.27625
222,2015-01-19,5.873333333333334,,5.873333333333334
222,2015-01-20,0.0,,0.0
222,2015-01-21,7.379166666666666,,7.379166666666666
222,2015-01-22,8.398333333333333,,8.398333333333333
222,2015-01-23,13.455416666666666,,13.455416666666666
222,2015-01-24,-0.05833333333333333,,-0.05833333333333333
222,2015-01-25,6.277916666666666,,6.277916666666666
222,2015-01-26,2.1225,,2.1225
222,2015-01-27,0.38999999999999996,,0.38999999999999996
222,2015-01-28,8.666666666666666,,8.666666666666666
222,2015-01-29,8.605416666666667,,8.605416666666667
222,2015-01-30,3.85875,,3.85875
222,2015-01-31,13.845833333333333,,13.845833333333333
222,2015-02-01,7.0633333333333335,,7.0633333333333335
222,2015-02-02,-0.04541666666666667,,-0.04541666666666667
222,2015-02-03,0.26833333333333337,,0.26833333333333337
222,2015-02-04,0.0,,0.0
222,2015-02-05,0.0,,0.0
222,2015-02-06,0.0,,0.0
222,2015-02-07,0.0,,0.0
222,2015-02-08,0.0,,0.0
222,2015-02-09,0.0,,0.0
222,2015-02-10,0.0,,0.0
222,2015-02-11,0.0,,0.0
222,2015-02-12,0.0,,0.0
222,2015-02-13,0.0,,0.0
222,2015-02-14,0.0,,0.0
222,2015-02-15,0.0,,0.0
222,2015-02-16,0.0,,0.0
222,2015-02-17,0.0,,0.0
222,2015-02-18,0.0,,0.0
222,2015-02-19,0.0,,0.0
222,2015-02-20,0.0,,0.0
222,2015-02-21,0.0,,0.0
222,2015-02-22,0.0,,0.0
222,2015-02-23,0.0,,0.0
222,2015-02-24,0.0,,0.0
222,2015-02-25,17.77541666666667,,17.77541666666667
222,2015-02-26,9.793750000000001,,9.793750000000001
222,2015-02-27,19.737083333333334,,19.737083333333334
222,2015-02-28,20.07,,20.07
222,2015-03-01,3.2770833333333336,,3.2770833333333336
222,2015-03-02,0.5641666666666666,,0.5641666666666666
222,2015-03-03,0.51375,,0.51375
222,2015-03-04,2.232083333333333,,2.232083333333333
222,2015-03-05,0.006666666666666667,,0.006666666666666667
222,2015-03-06,0.28875,,0.28875
222,2015-03-07,1.1245833333333333,,1.1245833333333333
222,2015-03-08,12.829583333333334,,12.829583333333334
222,2015-03-09,20.558333333333334,,20.558333333333334
222,2015-03-10,9.299583333333333,,9.299583333333333
222,2015-03-11,16.415,,16.415
222,2015-03-12,23.89708333333333,,23.89708333333333
222,2015-03-13,21.586250000000003,,21.586250000000003
222,2015-03-14,3.345833333333333,,3.345833333333333
222,2015-03-15,5.176666666666667,,5.176666666666667
222,2015-03-16,13.457083333333335,,13.457083333333335
222,2015-03-17,13.01,,13.01
222,2015-03-18,15.857083333333334,,15.857083333333334
222,2015-03-19,24.346666666666668,,24.346666666666668
222,2015-03-20,4.419583333333333,,4.419583333333333
222,2015-03-21,5.515000000000001,,5.515000000000001
222,2015-03-22,25.799166666666665,,25.799166666666665
222,2015-03-23,26.20625,,26.20625
222,2015-03-24,22.3275,,22.3275
222,2015-03-25,15.394166666666665,,15.394166666666665
222,2015-03-26,5.411666666666666,,5.411666666666666
222,2015-03-27,5.185,,5.185
222,2015-03-28,9.732916666666666,,9.732916666666666
222,2015-03-29,26.80666666666667,,26.80666666666667
222,2015-03-30,11.347916666666668,,11.347916666666668
222,2015-03-31,10.825833333333334,,10.825833333333334
222,2015-04-01,24.75916666666667,,24.75916666666667
222,2015-04-02,24.245,,24.245
222,2015-04-03,4.82125,,4.82125
222,2015-04-04,26.204583333333332,,26.204583333333332
222,2015-04-05,18.432083333333335,,18.432083333333335
222,2015-04-06,23.43166666666667,,23.43166666666667
222,2015-04-07,6.81625,,6.81625
222,2015-04-08,6.892083333333333,,6.892083333333333
222,2015-04-09,3.859583333333333,,3.859583333333333
222,2015-04-10,6.427916666666667,,6.427916666666667
222,2015-04-11,26.64,,26.64
222,2015-04-12,26.31125,,26.31125
222,2015-04-13,23.101249999999997,,23.101249999999997
222,2015-04-14,6.695833333333333,,6.695833333333333
222,2015-04-15,25.708333333333332,,25.708333333333332
222,2015-04-16,24.89,,24.89
222,2015-04-17,10.579166666666667,,10.579166666666667
222,2015-04-18,24.137083333333333,,24.137083333333333
222,2015-04-19,26.163749999999997,,26.163749999999997
222,2015-04-20,2.9795833333333337,,2.9795833333333337
222,2015-04-21,22.987916666666667,,22.987916666666667
222,2015-04-22,19.399166666666666,,19.399166666666666
222,2015-04-23,16.327916666666667,,16.327916666666667
222,2015-04-24,21.04625,,21.04625
222,2015-04-25,28.296666666666667,,28.296666666666667
222,2015-04-26,22.69125,,22.69125
222,2015-04-27,16.348333333333333,,16.348333333333333
222,2015-04-28,27.405833333333334,,27.405833333333334
222,2015-04-29,27.449166666666667,,27.449166666666667
222,2015-04-30,22.8175,,22.8175
222,2015-05-01,20.131249999999998,,20.131249999999998
222,2015-05-02,26.952916666666667,,26.952916666666667
222,2015-05-03,26.383750000000003,,26.383750000000003
222,2015-05-04,25.269166666666667,,25.269166666666667
222,2015-05-05,18.71291666666667,,18.71291666666667
222,2015-05-06,9.921666666666667,,9.921666666666667
222,2015-05-07,25.50791666666667,,25.50791666666667
222,2015-05-08,25.331666666666667,,25.331666666666667
222,2015-05-09,9.629166666666666,,9.629166666666666
222,2015-05-10,20.136666666666667,,20.136666666666667
222,2015-05-11,18.826666666666664,,18.826666666666664
222,2015-05-12,21.17125,,21.17125
222,2015-05-13,19.561666666666667,,19.561666666666667
222,2015-05-14,27.9575,,27.9575
222,2015-05-15,20.93,,20.93
222,2015-05-16,14.871666666666668,,14.871666666666668
222,2015-05-17,18.339583333333334,,18.339583333333334
222,2015-05-18,6.7825,,6.7825
222,2015-05-19,16.194583333333334,,16.194583333333334
222,2015-05-20,23.03333333333333,,23.03333333333333
222,2015-05-21,11.543750000000001,,11.543750000000001
222,2015-05-22,23.090416666666666,,23.090416666666666
222,2015-05-23,29.99208333333333,,29.99208333333333
222,2015-05-24,27.465833333333332,,27.465833333333332
222,2015-05-25,24.61,,24.61
222,2015-05-26,25.486666666666665,,25.486666666666665
222,2015-05-27,20.29375,,20.29375
222,2015-05-28,20.276666666666667,,20.276666666666667
222,2015-05-29,26.87291666666667,,26.87291666666667
222,2015-05-30,26.971666666666668,,26.971666666666668
222,2015-05-31,18.100416666666668,,18.100416666666668
222,2015-06-01,4.046666666666667,,4.046666666666667
222,2015-06-02,4.53375,,4.53375
222,2015-06-03,26.28,,26.28
222,2015-06-04,16.552916666666665,,16.552916666666665
222,2015-06-05,13.784999999999998,,13.784999999999998
222,2015-06-06,17.198333333333334,,17.198333333333334
222,2015-06-07,29.18625,,29.18625
222,2015-06-08,19.7825,,19.7825
222,2015-06-09,17.850833333333334,,17.850833333333334
222,2015-06-10,27.356666666666666,,27.356666666666666
222,2015-06-11,21.1025,,21.1025
222,2015-06-12,23.113333333333333,,23.113333333333333
222,2015-06-13,25.72083333333333,,25.72083333333333
222,2015-06-14,23.1425,,23.1425
222,2015-06-15,10.450833333333334,,10.450833333333334
222,2015-06-16,11.96375,,11.96375
222,2015-06-17,21.727500000000003,,21.727500000000003
222,2015-06-18,8.715416666666666,,8.715416666666666
222,2015-06-19,18.392916666666668,,18.392916666666668
222,2015-06-20,4.0200000000000005,,4.0200000000000005
222,2015-06-21,19.464166666666667,,19.464166666666667
222,2015-06-22,26.346249999999998,,26.346249999999998
222,2015-06-23,18.917916666666667,,18.917916666666667
222,2015-06-24,27.730833333333333,,27.730833333333333
222,2015-06-25,20.718333333333334,,20.718333333333334
222,2015-06-26,21.286666666666665,,21.286666666666665
222,2015-06-27,6.7683333333333335,,6.7683333333333335
222,2015-06-28,10.416666666666666,,10.416666666666666
222,2015-06-29,20.462500000000002,,20.462500000000002
222,2015-06-30,24.50125,,24.50125
222,2015-07-01,20.848333333333333,,20.848333333333333
222,2015-07-02,16.682083333333335,,16.682083333333335
222,2015-07-03,25.957916666666666,,25.957916666666666
222,2015-07-04,12.930833333333332,,12.930833333333332
222,2015-07-05,24.08458333333333,,24.08458333333333
222,2015-07-06,20.4525,,20.4525
222,2015-07-07,22.491666666666664,,22.491666666666664
222,2015-07-08,14.06,,14.06
222,2015-07-09,10.984166666666667,,10.984166666666667
222,2015-07-10,26.334999999999997,,26.334999999999997
222,2015-07-11,24.763333333333335,,24.763333333333335
222,2015-07-12,23.448333333333334,,23.448333333333334
222,2015-07-13,22.927916666666665,,22.927916666666665
222,2015-07-14,13.302916666666667,,13.302916666666667
222,2015-07-15,6.5945833333333335,,6.5945833333333335
222,2015-07-16,27.854166666666668,,27.854166666666668
222,2015-07-17,26.5,,26.5
222,2015-07-18,12.936250000000001,,12.936250000000001
222,2015-07-19,25.125,,25.125
222,2015-07-20,20.788333333333334,,20.788333333333334
222,2015-07-21,12.511249999999999,,12.511249999999999
222,2015-07-22,26.489166666666666,,26.489166666666666
222,2015-07-23,27.376666666666665,,27.376666666666665
222,2015-07-24,24.22083333333333,,24.22083333333333
222,2015-07-25,26.397499999999997,,26.397499999999997
222,2015-07-26,20.462083333333332,,20.462083333333332
222,2015-07-27,20.822916666666668,,20.822916666666668
222,2015-07-28,18.572083333333335,,18.572083333333335
222,2015-07-29,19.665,,19.665
222,2015-07-30,9.917916666666667,,9.917916666666667
222,2015-07-31,25.5675,,25.5675
222,2015-08-01,24.351249999999997,,24.351249999999997
222,2015-08-02,25.78625,,25.78625
222,2015-08-03,24.9075,,24.9075
222,2015-08-04,24.730416666666667,,24.730416666666667
222,2015-08-05,20.983333333333334,,20.983333333333334
222,2015-08-06,22.284166666666668,,22.284166666666668
222,2015-08-07,26.018333333333334,,26.018333333333334
222,2015-08-08,21.993333333333336,,21.993333333333336
222,2015-08-09,24.466250000000002,,24.466250000000002
222,2015-08-10,22.559583333333332,,22.559583333333332
222,2015-08-11,8.083333333333334,,8.083333333333334
222,2015-08-12,24.429166666666664,,24.429166666666664
222,2015-08-13,24.67833333333333,,24.67833333333333
222,2015-08-14,24.605833333333333,,24.605833333333333
222,2015-08-15,23.580833333333334,,23.580833333333334
222,2015-08-16,19.115416666666665,,19.115416666666665
222,2015-08-17,18.872916666666665,,18.872916666666665
222,2015-08-18,22.214166666666667,,22.214166666666667
222,2015-08-19,12.881666666666668,,12.881666666666668
222,2015-08-20,17.414583333333333,,17.414583333333333
222,2015-08-21,18.37375,,18.37375
222,2015-08-22,24.40416666666667,,24.40416666666667
222,2015-08-23,18.533333333333335,,18.533333333333335
222,2015-08-24,19.92125,,19.92125
222,2015-08-25,22.099166666666665,,22.099166666666665
222,2015-08-26,22.095416666666665,,22.095416666666665
222,2015-08-27,21.891666666666666,,21.891666666666666
222,2015-08-28,24.357083333333335,,24.357083333333335
222,2015-08-29,22.569999999999997,,22.569999999999997
222,2015-08-30,18.995,,18.995
222,2015-08-31,14.972499999999998,,14.972499999999998
222,2015-09-01,18.701666666666664,,18.701666666666664
222,2015-09-02,18.162916666666668,,18.162916666666668
222,2015-09-03,19.1875,,19.1875
222,2015-09-04,10.762083333333335,,10.762083333333335
222,2015-09-05,21.629583333333333,,21.629583333333333
222,2015-09-06,21.667916666666667,,21.667916666666667
222,2015-09-07,21.274583333333332,,21.274583333333332
222,2015-09-08,19.857083333333332,,19.857083333333332
222,2015-09-09,14.79,,14.79
222,2015-09-10,4.2908333333333335,,4.2908333333333335
222,2015-09-11,15.809583333333334,,15.809583333333334
222,2015-09-12,9.802083333333334,,9.802083333333334
222,2015-09-13,16.395833333333332,,16.395833333333332
222,2015-09-14,23.109166666666667,,23.109166666666667
222,2015-09-15,21.812916666666666,,21.812916666666666
222,2015-09-16,20.709166666666665,,20.709166666666665
222,2015-09-17,19.948333333333334,,19.948333333333334
222,2015-09-18,19.75,,19.75
222,2015-09-19,19.171666666666667,,19.171666666666667
222,2015-09-20,18.256249999999998,,18.256249999999998
222,2015-09-21,17.17833333333333,,17.17833333333333
222,2015-09-22,8.744583333333333,,8.744583333333333
222,2015-09-23,19.329166666666666,,19.329166666666666
222,2015-09-24,20.093333333333334,,20.093333333333334
222,2015-09-25,16.828333333333333,,16.828333333333333
222,2015-09-26,17.715,,17.715
222,2015-09-27,11.245833333333332,,11.245833333333332
222,2015-09-28,11.410416666666668,,11.410416666666668
222,2015-09-29,11.52375,,11.52375
222,2015-09-30,5.208333333333333,,5.208333333333333
222,2015-10-01,3.70375,,3.70375
222,2015-10-02,2.2912500000000002,,2.2912500000000002
222,2015-10-03,2.0920833333333335,,2.0920833333333335
222,2015-10-04,12.719583333333333,,12.719583333333333
222,2015-10-05,18.118750000000002,,18.118750000000002
222,2015-10-06,19.159583333333334,,19.159583333333334
222,2015-10-07,14.627083333333333,,14.627083333333333
222,2015-10-08,14.072083333333333,,14.072083333333333
222,2015-10-09,11.899166666666666,,11.899166666666666
222,2015-10-10,19.765416666666667,,19.765416666666667
222,2015-10-11,18.852083333333333,,18.852083333333333
222,2015-10-12,18.423333333333336,,18.423333333333336
222,2015-10-13,11.962083333333332,,11.962083333333332
222,2015-10-14,12.204166666666666,,12.204166666666666
222,2015-10-15,18.116666666666667,,18.116666666666667
222,2015-10-16,14.62,,14.62
222,2015-10-17,15.1,,15.1
222,2015-10-18,15.1025,,15.1025
222,2015-10-19,17.285833333333333,,17.285833333333333
222,2015-10-20,15.229999999999999,,15.229999999999999
222,2015-10-21,14.482916666666666,,14.482916666666666
222,2015-10-22,11.485,,11.485
222,2015-10-23,16.36375,,16.36375
222,2015-10-24,5.973333333333334,,5.973333333333334
222,2015-10-25,6.229583333333333,,6.229583333333333
222,2015-10-26,15.807916666666666,,15.807916666666666
222,2015-10-27,8.47875,,8.47875
222,2015-10-28,1.1633333333333333,,1.1633333333333333
222,2015-10-29,12.09625,,12.09625
222,2015-10-30,16.540833333333335,,16.540833333333335
222,2015-10-31,12.623750000000001,,12.623750000000001
222,2015-11-01,5.10375,,5.10375
222,2015-11-02,6.857916666666667,,6.857916666666667
222,2015-11-03,14.062083333333334,,14.062083333333334
222,2015-11-04,13.791666666666666,,13.791666666666666
222,2015-11-05,4.6825,,4.6825
222,2015-11-06,5.90625,,5.90625
222,2015-11-07,3.345,,3.345
222,2015-11-08,14.011249999999999,,14.011249999999999
222,2015-11-09,11.275,,11.275
222,2015-11-10,1.01625,,1.01625
222,2015-11-11,4.694166666666667,,4.694166666666667
222,2015-11-12,1.58,,1.58
222,2015-11-13,12.992083333333333,,12.992083333333333
222,2015-11-14,14.518333333333333,,14.518333333333333
222,2015-11-15,11.850833333333334,,11.850833333333334
222,2015-11-16,12.6725,,12.6725
222,2015-11-17,13.503749999999998,,13.503749999999998
222,2015-11-18,8.071250000000001,,8.071250000000001
222,2015-11-19,2.4970833333333333,,2.4970833333333333
222,2015-11-20,13.317083333333334,,13.317083333333334
222,2015-11-21,13.207500000000001,,13.207500000000001
222,2015-11-22,2.919583333333333,,2.919583333333333
222,2015-11-23,11.9375,,11.9375
222,2015-11-24,9.776666666666666,,9.776666666666666
222,2015-11-25,11.899583333333332,,11.899583333333332
222,2015-11-26,9.9575,,9.9575
222,2015-11-27,9.52125,,9.52125
222,2015-11-28,2.90625,,2.90625
222,2015-11-29,9.487916666666667,,9.487916666666667
222,2015-11-30,10.981250000000001,,10.981250000000001
222,2015-12-01,0.9041666666666667,,0.9041666666666667
222,2015-12-02,1.3120833333333333,,1.3120833333333333
222,2015-12-03,6.802083333333333,,6.802083333333333
222,2015-12-04,11.683333333333332,,11.683333333333332
222,2015-12-05,10.719999999999999,,10.719999999999999
222,2015-12-06,10.886666666666665,,10.886666666666665
222,2015-12-07,9.6675,,9.6675
222,2015-12-08,7.1745833333333335,,7.1745833333333335
222,2015-12-09,2.5187500000000003,,2.5187500000000003
222,2015-12-10,9.0325,,9.0325
222,2015-12-11,6.229166666666667,,6.229166666666667
222,2015-12-12,5.579583333333333,,5.579583333333333
222,2015-12-13,6.8183333333333325,,6.8183333333333325
222,2015-12-14,0.0020833333333333333,,0.0020833333333333333
222,2015-12-15,0.0,,0.0
222,2015-12-16,9.884166666666667,,9.884166666666667
222,2015-12-17,0.43416666666666665,,0.43416666666666665
222,2015-12-18,1.8279166666666666,,1.8279166666666666
222,2015-12-19,9.147499999999999,,9.147499999999999
222,2015-12-20,11.181666666666667,,11.181666666666667
222,2015-12-21,3.265,,3.265
222,2015-12-22,0.6504166666666666,,0.6504166666666666
222,2015-12-23,0.6758333333333333,,0.6758333333333333
222,2015-12-24,1.7770833333333333,,1.7770833333333333
222,2015-12-25,2.7291666666666665,,2.7291666666666665
222,2015-12-26,2.4283333333333332,,2.4283333333333332
222,2015-12-27,2.3520833333333333,,2.3520833333333333
222,2015-12-28,8.08625,,8.08625
222,2015-12-29,1.2420833333333332,,1.2420833333333332
222,2015-12-30,1.1812500000000001,,1.1812500000000001
222,2015-12-31,3.6795833333333334,,3.6795833333333334
222,2016-01-01,4.67125,,4.67125
222,2016-01-02,8.716666666666667,,8.716666666666667
222,2016-01-03,11.454583333333334,,11.454583333333334
222,2016-01-04,11.549999999999999,,11.549999999999999
222,2016-01-05,12.804166666666667,,12.804166666666667
222,2016-01-06,12.294166666666667,,12.294166666666667
222,2016-01-07,7.999583333333334,,7.999583333333334
222,2016-01-08,7.78375,,7.78375
222,2016-01-09,2.86375,,2.86375
222,2016-01-10,2.9250000000000003,,2.9250000000000003
222,2016-01-11,13.137083333333335,,13.137083333333335
222,2016-01-12,5.355,,5.355
222,2016-01-13,13.297916666666666,,13.297916666666666
222,2016-01-14,6.442083333333334,,6.442083333333334
222,2016-01-15,7.33875,,7.33875
222,2016-01-16,5.920000000000001,,5.920000000000001
222,2016-01-17,1.82625,,1.82625
222,2016-01-18,10.7025,,10.7025
222,2016-01-19,14.083333333333334,,14.083333333333334
222,2016-01-20,11.636666666666665,,11.636666666666665
222,2016-01-21,13.523333333333333,,13.523333333333333
222,2016-01-22,6.889166666666667,,6.889166666666667
222,2016-01-23,0.10416666666666667,,0.10416666666666667
222,2016-01-24,1.1629166666666666,,1.1629166666666666
222,2016-01-25,1.0370833333333334,,1.0370833333333334
222,2016-01-26,1.0858333333333332,,1.0858333333333332
222,2016-01-27,7.9175,,7.9175
222,2016-01-28,12.385416666666666,,12.385416666666666
222,2016-01-29,5.3445833333333335,,5.3445833333333335
222,2016-01-30,12.837916666666667,,12.837916666666667
222,2016-01-31,12.149583333333332,,12.149583333333332
222,2016-02-01,7.113333333333333,,7.113333333333333
222,2016-02-02,14.0475,,14.0475
222,2016-02-03,0.8891666666666667,,0.8891666666666667
222,2016-02-04,4.79875,,4.79875
222,2016-02-05,0.24208333333333332,,0.24208333333333332
222,2016-02-06,7.185833333333334,,7.185833333333334
222,2016-02-07,11.56875,,11.56875
222,2016-02-08,0.8720833333333333,,0.8720833333333333
222,2016-02-09,6.201666666666667,,6.201666666666667
222,2016-02-10,6.25,,6.25
222,2016-02-11,12.627916666666666,,12.627916666666666
222,2016-02-12,13.893333333333333,,13.893333333333333
222,2016-02-13,16.99875,,16.99875
222,2016-02-14,19.4725,,19.4725
222,2016-02-15,1.8816666666666666,,1.8816666666666666
222,2016-02-16,1.625,,1.625
222,2016-02-17,4.336666666666667,,4.336666666666667
222,2016-02-18,19.11,,19.11
222,2016-02-19,11.490833333333333,,11.490833333333333
222,2016-02-20,12.015,,12.015
222,2016-02-21,6.958749999999999,,6.958749999999999
222,2016-02-22,18.47125,,18.47125
222,2016-02-23,2.0508333333333333,,2.0508333333333333
222,2016-02-24,1.095,,1.095
222,2016-02-25,5.6554166666666665,,5.6554166666666665
222,2016-02-26,20.101666666666667,,20.101666666666667
222,2016-02-27,19.7925,,19.7925
222,2016-02-28,19.485833333333336,,19.485833333333336
222,2016-02-29,10.43,,10.43
222,2016-03-01,18.802083333333332,,18.802083333333332
222,2016-03-02,18.38,,18.38
222,2016-03-03,17.836666666666666,,17.836666666666666
222,2016-03-04,0.96125,,0.96125
222,2016-03-05,18.287916666666668,,18.287916666666668
222,2016-03-06,15.845833333333333,,15.845833333333333
222,2016-03-07,20.05125,,20.05125
222,2016-03-08,16.284166666666668,,16.284166666666668
222,2016-03-09,18.923750000000002,,18.923750000000002
222,2016-03-10,11.757916666666667,,11.757916666666667
222,2016-03-11,15.542083333333332,,15.542083333333332
222,2016-03-12,20.40875,,20.40875
222,2016-03-13,8.642083333333334,,8.642083333333334
222,2016-03-14,2.7779166666666666,,2.7779166666666666
222,2016-03-15,6.42625,,6.42625
222,2016-03-16,17.760416666666668,,17.760416666666668
222,2016-03-17,16.0325,,16.0325
222,2016-03-18,17.06083333333333,,17.06083333333333
222,2016-03-19,14.334583333333333,,14.334583333333333
222,2016-03-20,14.545416666666666,,14.545416666666666
222,2016-03-21,19.865416666666665,,19.865416666666665
222,2016-03-22,15.0775,,15.0775
222,2016-03-23,0.0,,0.0
222,2016-03-24,0.0,,0.0
222,2016-03-25,9.165833333333333,,9.165833333333333
222,2016-03-26,22.8325,,22.8325
222,2016-03-27,19.2625,,19.2625
222,2016-03-28,8.292083333333332,,8.292083333333332
222,2016-03-29,26.2625,,26.2625
222,2016-03-30,25.17125,,25.17125
222,2016-03-31,18.684166666666666,,18.684166666666666
222,2016-04-01,11.566249999999998,,11.566249999999998
222,2016-04-02,7.6025,,7.6025
222,2016-04-03,27.217916666666667,,27.217916666666667
222,2016-04-04,0.0020833333333333333,,0.0020833333333333333
222,2016-04-05,2.935833333333333,,2.935833333333333
222,2016-04-06,22.42125,,22.42125
222,2016-04-07,8.061666666666666,,8.061666666666666
222,2016-04-08,13.747083333333334,,13.747083333333334
222,2016-04-09,6.1933333333333325,,6.1933333333333325
222,2016-04-10,27.267083333333332,,27.267083333333332
222,2016-04-11,17.57375,,17.57375
222,2016-04-12,9.875,,9.875
222,2016-04-13,26.98625,,26.98625
222,2016-04-14,26.05666666666667,,26.05666666666667
222,2016-04-15,25.984166666666667,,25.984166666666667
222,2016-04-16,25.987916666666667,,25.987916666666667
222,2016-04-17,25.42833333333333,,25.42833333333333
222,2016-04-18,24.75708333333333,,24.75708333333333
222,2016-04-19,24.189166666666665,,24.189166666666665
222,2016-04-20,27.20875,,27.20875
222,2016-04-21,25.36583333333333,,25.36583333333333
222,2016-04-22,19.802083333333332,,19.802083333333332